COSMOS 1275 DEB, 12964

Orbit data source: Space-Track

COSMOS 1275 DEB, 12964 is space debris in LEO originally from a launch on Thu, 04 Jun 1981 UTC launched from the Plesetsk Missile And Space Complex (PKMTR). Debris objects in space refer to the collection of defunct objects orbiting the Earth. Examples of debris include non-operational satellites, rocket bodies, and fragments generated from explosions, collisions, or faulty payload assembly.

Loading next visibility...
Identifier
12964, 1981-053EK
Orbit
LEO
Country
Flag of CISCIS
Related business
Manufacturer
Unknown
Mission
Spacecraft
Bus & Motor
Unknown
Mass
Unknown
Launch date (UTC)
1981-06-04 (45 years ago)
Launch vehicle
Unknown
Launch site
Plesetsk Missile And Space Complex (PKMTR)
Object type
Payload
Rocket body
Debris
Shape & HBR
Unknown shape, 0.1 m
Radar Cross Section
Small (<0.1 m²)

Expand to show TLE details & history
Last TLE update: 9 hours ago

TLE from 9 hours ago
0 COSMOS 1275 DEB
1 12964U 81053EK  26034.55504235  .00000034  00000-0  17690-4 0  9997
2 12964  82.9432 215.8336 0039444 149.7622 277.4840 13.80307885230386
Epoch: 2026-02-03T13:19Z
TLE epoch observation values (Epoch: 2026-02-03T13:19:15.659Z)
Latitude
65.88917°
Longitude
-101.74446°
Altitude
970.524 km
Speed
7.374 km/s
True Right ascension
15h 27m 13s
True Declination
65° 45' 52"
Sunlit
Object was in daylight at epoch
Visualization orbit readout
Latitude
Unknown
Longitude
Unknown
Altitude
Unknown
Speed
Unknown
Apparent Right ascension
Unknown
Apparent Declination
Unknown
Sunlit
N/A
Visualization observer readout
Local Sidereal Time
00:12:00
Azimuth
Unknown
Elevation
Unknown
Doppler factor
Unknown
Orbital elements
Apogee altitude
988.881 km
Perigee altitude
930.992 km
Semi-major axis
7,338.073 km
Eccentricity
0.00394
Inclination
82.9432°
RAAN
215.8336°
Arg. of periapsis
149.7622°
True anomaly
277.03557°
Mean anomaly
277.484°
Eccentric anomaly
277.25981°
Mean motion
3.45279 °/min
Orbital period
104.26 mins
BSTAR
0.00001769
Loading maneuver chart data...
Computing Atmospheric mass density...
Loading historical data...
Loading historical data...
Loading historical data...
Loading historical data...
Loading historical data...
Loading historical data...
Loading historical data...

Documentation

Showing up to 5 results
|